Location: Bloomsbury
(51.5167°N, 0.1167°W)
Time: 07:39:39
(UTC+00:00)

Daily predictions for brighter satellites

Satellite Brightness Start Highest point End
(mag) Time Altitude Azimuth Time Altitude Azimuth Time Altitude Azimuth
NOSS 2-1 (E) 4.0 21:00:02 10° NW 21:04:23 89° SW 21:10:34 10° SE
SPOT 3 Rocket 3.7 21:01:17 10° SSE 21:06:29 80° WSW 21:11:44 10° NNW
RESURS DK-1 3.4 21:04:41 10° NNW 21:08:35 37° NE 21:12:27 10° ESE
ERS-1 Rocket 3.1 21:04:35 10° SSE 21:09:35 67° ENE 21:14:35 10° N
Lacrosse 4 Rocket 4.0 21:09:16 10° W 21:12:47 27° NW 21:16:16 10° NNE
CZ-2C R/B 4.3 21:11:45 10° NNE 21:16:06 39° E 21:20:20 10° SSE
Cosmos 2056 Rocket 3.6 21:12:05 10° SSW 21:17:29 84° ESE 21:22:57 10° NNE
Cosmos 1025 Rocket 3.2 21:13:41 10° SSW 21:17:57 75° W 21:22:17 10° N
Cosmos 1455 Rocket 4.1 21:14:07 10° NNW 21:18:16 44° W 21:22:22 10° SSW
Cosmos 1741 Rocket 4.4 21:15:14 10° NNW 21:20:29 56° ENE 21:25:43 10° SE
Cosmos 2315 Rocket 4.2 21:14:15 10° SSW 21:20:36 81° W 21:26:56 10° N
ARIANE 5 R/B 3.1 21:18:26 10° SE 21:22:46 52° ENE 21:27:06 10° N
Cosmos 676 Rocket 4.4 21:18:21 10° NNW 21:23:37 62° WSW 21:28:48 10° S
Cosmos 1420 Rocket 4.0 21:20:06 10° SSW 21:25:21 81° ESE 21:30:40 10° NNE
Cosmos 2344 4.4 21:17:17 10° NW 21:25:35 66° NE 21:36:56 10° ESE
SL-8 R/B 3.8 21:22:25 10° W 21:27:09 60° S 21:31:54 10° ESE
Cosmos 1455 2.6 21:27:05 10° NNW 21:30:51 61° W 21:34:36 10° S
Cosmos 2074 Rocket 4.1 21:27:22 10° N 21:33:41 77° ENE 21:39:56 10° SSE
USA 245 4.4 21:29:52 10° S 21:34:18 43° W 21:37:53 10° NNW
Meteor 2-5 Rocket 4.4 21:34:40 10° SSW 21:40:05 57° WNW 21:45:36 10° N
USA 32 4.3 21:34:57 10° SSW 21:40:09 70° W 21:45:24 10° N
SL-16 R/B 4.5 21:38:59 10° NNW 21:42:52 18° NNE 21:46:45 10° ENE
Cosmos 1607 4.0 21:36:42 10° SW 21:42:56 87° NW 21:49:10 10° NE
USA 267 3.6 21:38:56 10° ENE 21:45:03 40° SE 21:51:07 10° SSW
Cosmos 1536 Rocket 3.5 21:44:01 10° S 21:48:20 81° E 21:52:42 10° NNE
Cosmos 2228 3.0 21:44:06 10° N 21:48:21 71° ENE 21:52:05 13° SSE
Tiangong 3.4 21:49:17 10° SSW 21:50:05 11° SSW 21:50:37 10° S
Cosmos 1850 Rocket 4.0 21:45:27 10° NNW 21:50:42 86° WSW 21:55:21 13° SSE
Cosmos 1980 Rocket 3.1 21:45:33 10° NNW 21:50:58 42° NE 21:56:20 10° ESE
SPOT 5 3.4 21:47:01 10° S 21:51:18 47° W 21:55:31 10° NNW
Nadezhda 1 Rocket 4.2 21:47:12 10° SSE 21:53:07 55° E 21:59:02 10° NNE
Cosmos 1606 Rocket 3.9 21:49:08 10° N 21:53:23 54° ENE 21:56:56 14° SSE
Cosmos 1697 Rocket 2.8 21:48:04 10° NNW 21:53:43 71° ENE 21:58:44 13° SE
Cosmos 1703 3.2 21:51:27 10° S 21:55:17 72° E 21:59:09 10° NNE
Cosmos 2154 Rocket 4.0 21:52:14 10° N 21:58:32 82° E 22:04:14 13° SSE
Cosmos 2084 Rocket 4.1 21:54:53 10° NW 21:58:37 45° NE 22:02:29 10° ESE
Cosmos 2084 3.5 21:56:13 10° SW 22:00:03 68° NW 22:03:57 10° NE
Cosmos 1656 4.1 21:57:48 10° NW 22:03:07 55° WSW 22:07:55 13° S
USA 276 2.3 22:00:31 10° SW 22:03:23 42° SSE 22:06:15 10° E
Cosmos 1328 4.3 22:04:04 15° SSE 22:07:03 44° E 22:10:53 10° NNE
Cosmos 1331 Rocket 4.3 22:04:06 11° S 22:09:02 49° ESE 22:14:09 10° NNE
X-37B 1.6 22:10:25 10° SW 22:12:40 22° S 22:12:57 21° SSE
Meteor 1-21 Rocket 4.2 22:10:01 10° S 22:15:29 75° E 22:21:10 10° NNE
Lacrosse 5 3.2 22:12:31 10° WNW 22:16:46 27° SW 22:20:08 14° S
Cosmos 1408 3.8 22:15:25 17° SE 22:17:09 26° E 22:20:03 10° NNE
Cosmos 1726 Rocket 3.5 22:13:52 10° N 22:18:13 73° ENE 22:21:23 18° SSE
SAR-Lupe-4 3.7 22:14:58 10° NNE 22:18:31 55° ESE 22:20:59 18° S
Cosmos 1452 Rocket 3.5 22:13:46 10° SSW 22:19:02 88° WNW 22:24:21 10° NNE
ATLAS 2AS CENTAUR R/B 3.8 22:13:49 10° NW 22:19:54 32° WSW 22:25:25 11° S
FALCON 9 DEB 3.4 22:17:08 10° W 22:20:23 65° N 22:23:38 10° E
USA 234 3.3 22:14:39 10° ESE 22:21:14 81° SSW 22:27:50 10° WNW
Terra 2.9 22:17:05 10° SSW 22:21:32 38° W 22:25:59 10° NNW
Cosmos 2322 Rocket 4.2 22:17:59 10° NNW 22:22:22 22° NE 22:26:44 10° E
Cosmos 1833 Rocket 2.7 22:18:08 10° SSW 22:23:40 62° ESE 22:29:13 10° NE
Cosmos 1867 4.0 22:20:38 10° NW 22:26:05 59° NE 22:31:17 11° ESE
SL-8 Rocket 4.3 22:22:45 10° N 22:28:58 59° ENE 22:33:46 17° SSE
Cosmos 1110 Rocket 4.0 22:25:57 10° SSW 22:31:12 78° ESE 22:36:32 10° NNE
Cosmos 2360 4.4 22:26:07 10° NW 22:31:50 69° WSW 22:36:09 18° SSE
Cosmos 1900 4.5 22:27:38 10° NW 22:32:49 73° SW 22:36:32 19° SSE
SAR-Lupe-1 4.0 22:31:04 10° NNE 22:34:40 87° WNW 22:37:27 16° SSW
ALOS 2 3.6 22:32:45 15° SE 22:35:57 37° ENE 22:40:00 10° N
Cosmos 2218 Rocket 4.3 22:34:40 10° N 22:41:03 62° ENE 22:45:53 18° SSE
Cosmos 2366 rocket 4.2 22:38:32 10° N 22:44:50 65° ENE 22:49:34 18° SSE
RESURS DK-1 3.6 22:42:50 10° NW 22:46:29 31° WSW 22:48:58 17° SSW
Cosmos 2082 Rocket 2.7 22:42:49 18° S 22:46:36 42° ESE 22:51:58 10° NE
Cosmos 2341 Rocket 4.0 22:42:58 10° N 22:49:21 89° W 22:54:07 19° S
Cosmos 2058 Rocket 3.0 22:47:48 10° N 22:52:14 87° W 22:55:04 22° S
Spot 4 3.8 22:52:43 21° SSE 22:55:55 84° ENE 23:00:44 10° NNW
Cosmos 1892 Rocket 3.6 22:53:33 18° SSW 22:56:48 83° WNW 23:01:13 10° N
Cosmos 1825 2.8 22:58:50 24° SSE 23:00:33 39° E 23:04:05 10° NNE
Cosmos 2360 Rocket 4.1 22:57:22 10° NNW 23:02:05 26° NE 23:06:47 10° E
Cosmos 968 Rocket 3.6 22:58:49 10° NNW 23:03:59 68° WSW 23:07:22 22° S
Cosmos 192 4.3 23:00:40 17° SSW 23:04:24 76° ESE 23:09:19 10° NNE
ERS-2 3.8 23:01:58 10° NE 23:04:41 20° E 23:05:53 17° ESE
Cosmos-2242 4.2 23:01:41 10° N 23:05:34 33° ENE 23:08:16 17° SE
GP-B 3.5 23:03:49 10° N 23:08:12 60° W 23:11:19 19° SSW
SL-8 R/B 4.4 23:04:54 10° W 23:09:15 34° SSW 23:11:22 23° SSE
Cosmos 1959 Rocket 4.4 23:03:14 10° N 23:09:23 89° ENE 23:13:40 21° S
Cosmos 1626 Rocket 3.9 23:10:22 24° SSE 23:12:41 52° E 23:16:55 10° NNE
Cosmos 1869 3.2 23:11:14 10° N 23:15:07 82° E 23:17:08 27° SSE
Cosmos 1606 4.2 23:12:36 10° N 23:15:58 28° ENE 23:18:18 16° ESE
BREEZE-M DEB (TANK) 3.5 23:13:19 10° W 23:16:23 69° S 23:27:31 10° ESE
Meteor 1-27 4.2 23:11:21 10° NNW 23:16:58 86° W 23:20:39 22° S
ASTEX 1 4.2 23:13:16 10° N 23:18:05 48° WNW 23:22:15 13° SSW
Cosmos 2181 Rocket 4.0 23:20:12 19° S 23:24:45 89° WNW 23:31:01 10° N
COSMOS 2406 3.3 23:19:53 11° SSW 23:25:24 82° WNW 23:31:13 10° NNE
ADEOS Rocket 3.5 23:20:28 20° SSE 23:25:49 89° WSW 23:33:35 10° NNW
Cosmos 1633 3.3 23:25:15 27° SE 23:26:32 38° E 23:29:48 10° NNE
Cosmos 2369 4.3 23:21:09 10° NW 23:26:36 46° WSW 23:30:04 21° S
SL-16 R/B 2.7 23:22:36 10° NNW 23:28:14 58° NE 23:33:07 14° SE
USA 267 3.3 23:21:54 10° ENE 23:28:29 86° NNW 23:35:03 10° WSW
Okean 1-7 Rocket 3.5 23:27:28 24° S 23:30:07 88° E 23:34:38 10° N
Cosmos 1892 3.3 23:30:47 20° SW 23:33:08 49° WNW 23:36:49 10° N
Cosmos 1980 Rocket 2.8 23:29:39 10° NW 23:35:03 44° WSW 23:38:22 22° S
SJ 16-02 2.3 23:31:36 10° NNW 23:35:51 42° ENE 23:39:13 15° SE
Cosmos 1486 Rocket 4.0 23:31:07 10° NNW 23:36:20 78° WSW 23:39:34 24° SSE
Cosmos 1697 Rocket 4.2 23:32:49 10° NW 23:37:10 24° WSW 23:40:27 14° SW
Cosmos 2084 Rocket 4.3 23:34:26 10° WNW 23:37:55 31° SW 23:39:10 25° SSW
USA 276 1.8 23:35:54 10° W 23:38:54 66° S 23:41:53 10° E
Cosmos 1821 Rocket 4.0 23:35:21 10° N 23:41:41 81° E 23:45:54 22° SSE
Cosmos 2219 Rocket 4.3 23:37:50 10° NNW 23:42:27 25° NE 23:47:02 10° E
Cosmos 1992 Rocket 4.0 23:48:18 23° SSW 23:51:40 79° ESE 23:56:56 10° NNE
Cosmos 1408 4.3 23:49:23 13° WSW 23:51:47 25° WNW 23:54:41 10° NNW
